{"data":{"norad_id":67788,"intl_designator":"2026-030AA","name":"KUIPER-00262","alt_names":[],"object_type":"PAYLOAD","status":"ACTIVE","operator":null,"country":"US","launch_date":"2026-02-12","launch_site_code":"FRGUI","launch_vehicle":null,"mission":null,"orbit_class":"UNKNOWN","rcs_meters":null,"size_class":null,"mass_kg":null,"dimensions":null,"purposes":[],"wikipedia_slug":null,"has_3d_model":false,"image_url":null,"decayed_at":null,"tle_current":{"epoch":"2026-09-20T22:23:53.134368Z","epoch_age_seconds":49108,"freshness":"FRESH","line1":"1 67788U 26030AA  26263.93325387  .00001827  00000+0  26854-3 0  9991","line2":"2 67788  51.9004  52.2648 0000962 134.3477 225.7564 14.79937124 34331","mean_motion":14.79937124,"eccentricity":9.62e-5,"inclination_deg":51.9004,"raan_deg":52.2648,"arg_perigee_deg":134.3477,"mean_anomaly_deg":225.7564,"bstar":0.00026854,"rev_number":3433,"period_min":97.301431030255,"perigee_km":628.8484739046,"apogee_km":630.19674761371,"semimajor_km":7007.6596107592,"source":"CELESTRAK","updated_at":"2026-09-21T09:00:16.857288Z"}}}